TimeAKST,TemperatureF,Dew PointF,Humidity,Sea Level PressureIn,VisibilityMPH,Wind Direction,Wind SpeedMPH,Gust SpeedMPH,PrecipitationIn,Events,Conditions,WindDirDegrees,DateUTC
12:53 AM,12.0,9.0,88,29.43,10.0,Calm,Calm,-,N/A,,Overcast,0,2013-01-25 09:53:00
1:53 AM,12.0,9.0,88,29.42,10.0,North,9.2,-,N/A,,Overcast,10,2013-01-25 10:53:00
3:53 AM,10.9,7.0,84,29.39,10.0,NNE,9.2,-,N/A,,Overcast,20,2013-01-25 12:53:00
4:53 AM,10.9,6.1,81,29.39,10.0,North,11.5,-,N/A,,Overcast,10,2013-01-25 13:53:00
5:53 AM,10.9,7.0,84,29.39,10.0,North,9.2,-,N/A,,Overcast,350,2013-01-25 14:53:00
6:53 AM,10.9,6.1,81,29.39,9.0,North,9.2,-,0.00,Snow,Light Snow,10,2013-01-25 15:53:00
6:56 AM,10.9,6.1,81,29.25,9.0,North,11.5,-,0.00,Snow,Light Snow,360,2013-01-25 15:56:00
7:03 AM,10.9,6.1,81,29.25,9.0,North,8.1,-,0.00,Snow,Light Snow,350,2013-01-25 16:03:00
7:53 AM,10.0,6.1,84,29.40,3.0,North,6.9,-,0.01,Snow,Light Snow,10,2013-01-25 16:53:00
8:53 AM,10.0,5.0,80,29.43,3.0,North,8.1,-,0.01,Snow,Light Snow,350,2013-01-25 17:53:00
9:06 AM,10.0,6.1,84,29.29,2.0,NNW,8.1,-,0.00,Snow,Light Snow,340,2013-01-25 18:06:00
9:27 AM,9.0,3.9,80,29.30,1.0,North,13.8,-,0.01,Snow,Light Snow,350,2013-01-25 18:27:00
9:36 AM,9.0,5.0,84,29.30,0.8,North,9.2,-,0.01,Snow,Light Snow,360,2013-01-25 18:36:00
9:53 AM,9.0,6.1,88,29.45,0.5,NNW,8.1,-,0.02,Fog-Snow,Snow,330,2013-01-25 18:53:00
10:53 AM,8.1,3.9,83,29.47,0.5,North,9.2,-,0.04,Fog-Snow,Snow,360,2013-01-25 19:53:00
11:17 AM,8.1,3.9,83,29.34,0.5,NNW,8.1,-,0.02,Fog-Snow,Snow,340,2013-01-25 20:17:00
11:53 AM,8.1,3.9,83,29.50,0.2,NNW,10.4,-,0.06,Fog-Snow,Heavy Snow,340,2013-01-25 20:53:00
12:21 PM,8.1,3.0,80,29.37,0.5,NNW,8.1,-,0.02,Fog-Snow,Snow,340,2013-01-25 21:21:00
12:35 PM,8.1,3.0,80,29.37,1.0,NNW,8.1,-,0.03,Snow,Light Snow,340,2013-01-25 21:35:00
12:53 PM,7.0,3.0,84,29.52,0.8,NNW,9.2,18.4,0.04,Snow,Light Snow,340,2013-01-25 21:53:00
1:53 PM,6.1,1.0,80,29.53,0.8,North,11.5,-,0.02,Snow,Light Snow,350,2013-01-25 22:53:00
2:53 PM,6.1,1.0,80,29.55,0.8,North,10.4,-,0.03,Snow,Light Snow,360,2013-01-25 23:53:00
3:16 PM,5.0,1.0,84,29.41,1.0,North,10.4,-,0.01,Snow,Light Snow,360,2013-01-26 00:16:00
3:53 PM,5.0,-0.0,80,29.57,2.0,North,11.5,-,0.02,Snow,Light Snow,350,2013-01-26 00:53:00
4:07 PM,5.0,-0.0,80,29.42,4.0,NNW,11.5,-,0.00,Snow,Light Snow,340,2013-01-26 01:07:00
4:53 PM,3.9,-0.9,80,29.59,3.0,North,11.5,-,0.00,Snow,Light Snow,350,2013-01-26 01:53:00
5:53 PM,3.0,-0.9,84,29.61,3.0,NNW,8.1,-,0.01,Snow,Light Snow,340,2013-01-26 02:53:00
6:53 PM,1.9,-2.9,80,29.63,5.0,NNW,11.5,-,0.01,Snow,Light Snow,340,2013-01-26 03:53:00
7:53 PM,1.9,-4.0,76,29.65,5.0,North,10.4,-,0.00,Snow,Light Snow,350,2013-01-26 04:53:00
8:53 PM,1.9,-5.1,72,29.66,5.0,NNW,11.5,-,0.00,Snow,Light Snow,340,2013-01-26 05:53:00
9:26 PM,1.0,-5.1,75,29.51,5.0,NNW,9.2,-,0.00,Snow,Light Snow,330,2013-01-26 06:26:00
9:53 PM,-0.0,-5.1,79,29.68,5.0,NNW,9.2,-,0.00,Snow,Light Snow,330,2013-01-26 06:53:00
10:53 PM,-0.9,-7.1,75,29.69,6.0,NW,9.2,-,0.00,Snow,Light Snow,320,2013-01-26 07:53:00
11:53 PM,-2.0,-8.0,76,29.71,6.0,NNW,10.4,-,0.00,Snow,Light Snow,330,2013-01-26 08:53:00